Powrót do katalogu

SAMSAT-ION 2

AktywnyKrótkofalarstwoSSO
NORAD 61784·PAYLOAD·🇷🇺 Russia
Ta nazwa satelity nie została jeszcze potwierdzona przez oficjalne źródła.

Wystrzelony Nov 4, 2024 z Vostochny Cosmodrome

Loading…

Następne Przeloty (najbliższe 24 godziny)

TLE

ŚwieżeSource: Space-Track

Epoka: Sep 14, 2026, 21:17 UTC

1 61784U 24199BB  26257.88689389  .00083662  00000-0  79719-3 0  9993
2 61784  97.2749 136.3588 0004048 320.9391  39.1577 15.66527582151560

Śledź SAMSAT-ION 2 w czasie rzeczywistym z AllMySat

Download on the App Store